Find Starlink 31388

NORAD ID: 59565 Int'l Des: 2024-076 Owner: SPXS Country: US Constellation: starlink operational
LEOCIRCULAR

Live Position

Loading 3D Globe...

About Starlink 31388

Description loading...

Upcoming Passes

Passes for default location (London). Set your location on the main map for personalized predictions.

Altitude History

Loading altitude history...

Two-Line Element Set

1 59565U 24076B 26139.78745166 .00005196 00000-0 19821-3 0 9999
2 59565 43.0028 327.7130 0001868 285.2862 74.7783 15.27579365117373
Epoch: May 19, 2026 • Age: 13 hours

Current Status

Altitude 487.1 km
Velocity 7.63 km/s
Sub-Earth Point 41.52°N, 77.3°E
Launch Date Apr 23, 2024
Age 2 years
Type internet

Technical Details

Classification Payload
Mass 730.00 kg
Dry Mass 700.00 kg
Total Mass 730.00 kg
Length 0.30 m
Diameter 4.10 m
Span 29.00 m
Shape Box + pan
Manufacturer SPXS
Bus Type Starlink V2M
Phase Status In Orbit
Owner/State SPXS/US

Most Searched